星链-30942 (STARLINK-30942 )

导读 | 星芒AI

STARLINK-30942 是 SpaceX 星链计划中的一颗低轨通信卫星,属于第 15 批组网发射的星链卫星之一。该卫星于 2023 年发射,部署在约 550 公里的近地轨道上,旨在为全球用户提供高速互联网服务。作为星链星座的一部分,它通过与其他卫星协同工作,提升网络覆盖与连接稳定性,尤其在偏远和网络基础设施薄弱的地区发挥重要作用。星链项目致力于构建全球宽带网络,推动互联网普及。

基本信息
目录编号:
58441
目录名称:
STARLINK-30942
国际标识:
2023-183E
轨道中心:
EARTH
卫星名称:
星链-30942
卫星全名:
星链-30942 (STARLINK-30942 )
卫星状态:
在轨 (已飞行703 天)
发射日期:
2023-11-28 UTC
国别 :
美国 (US)
星等 :
--
轨道信息
数据来源 国际轨道数据
星历时间: 2025-10-30T23:26:06+0800
21小时前
查看轨道信息
半长轴: 6937.206km
偏心率: 0.000143
轨道倾角: 43.004°
近地点辐角 274.646°
升交点赤经 29.810°
平近点角 85.422°
近地点: 558.078km
远地点: 560.064km
周期: 95.838分钟
每日圈数: 15.025395
详细信息
固有亮度:
5
最大亮度:
0.3
卫星平台:
Starlink v2.0 mini
覆盖范围:
全球
运营商:
太空探索技术公司
运营商所在国:
美国
制造商(研发单位):
太空探索技术公司
制造商所在国:
美国
使用方式:
暂无
卫星简介
星链(Starlink)计划是由太空探索技术公司(SpaceX)提出的一个巨型低轨卫星互联网星座项目,计划在2019年至2024年间在太空搭建由约1.2万颗卫星组成的“星链”网络,其中1584颗将部署在地球上空550千米处的近地轨道,并从2020年开始工作。该卫星仍在工作。
2D轨道图
3D轨道图
轨道高度分析图
轨道倾角分析图
轨道综合分析图
查看轨道综合分析图